{"data":{"norad_id":59774,"epoch":"2026-05-25T04:35:00.354912Z","epoch_age_seconds":58471,"freshness":"FRESH","line1":"1 59774U 24092B   26145.19097633  .00009385  00000+0  34374-3 0  9993","line2":"2 59774  97.6456 273.6852 0007641 259.4722 100.5656 15.28221564112028","mean_motion":15.28221564,"eccentricity":0.0007641,"inclination_deg":97.6456,"raan_deg":273.6852,"arg_perigee_deg":259.4722,"mean_anomaly_deg":100.5656,"bstar":0.00034374,"rev_number":11202,"period_min":94.227174509363,"perigee_km":475.88752980912,"apogee_km":486.3698596438,"semimajor_km":6859.2656947265,"source":"CELESTRAK","updated_at":"2026-05-25T13:38:01.630082Z"}}